METEOR 2-5 DEB, 40215

Orbit data source: Space-Track

METEOR 2-5 DEB, 40215 is space debris in LEO originally from a launch on Wed, 31 Oct 1979 UTC launched from the Plesetsk Missile And Space Complex (PKMTR). Debris objects in space refer to the collection of defunct objects orbiting the Earth. Examples of debris include non-operational satellites, rocket bodies, and fragments generated from explosions, collisions, or faulty payload assembly.

Loading next visibility...
Identifier
40215, 1979-095CN
Orbit
LEO
Country
Flag of CISCIS
Related business
Manufacturer
Unknown
Mission
Spacecraft
Bus & Motor
Unknown
Mass
Unknown
Launch date (UTC)
1979-10-31 (47 years ago)
Launch vehicle
Unknown
Launch site
Plesetsk Missile And Space Complex (PKMTR)
Object type
Payload
Rocket body
Debris
Shape & HBR
Unknown shape, 0.1 m
Radar Cross Section
Small (<0.1 m²)

Expand to show TLE details & history
Last TLE update: 2 days ago

TLE from 2 days ago
0 METEOR 2-5 DEB
1 40215U 79095CN  26264.15276864  .00003577  00000-0  11631-2 0  9997
2 40215  81.1853  54.3604 0010576 192.7696 167.3224 14.38628931 41488
Epoch: 2026-09-21T03:39Z
TLE epoch observation values (Epoch: 2026-09-21T03:39:59.210Z)
Latitude
-0.00005°
Longitude
-0.67301°
Altitude
773.339 km
Speed
7.464 km/s
True Right ascension
03h 37m 26s
True Declination
0° 00' 00"
Sunlit
Object was in full shadow at epoch
Visualization orbit readout
Latitude
Unknown
Longitude
Unknown
Altitude
Unknown
Speed
Unknown
Apparent Right ascension
Unknown
Apparent Declination
Unknown
Sunlit
N/A
Visualization observer readout
Local Sidereal Time
17:33:54
Azimuth
Unknown
Elevation
Unknown
Doppler factor
Unknown
Orbital elements
Apogee altitude
767.72 km
Perigee altitude
752.621 km
Semi-major axis
7,138.308 km
Eccentricity
0.00106
Inclination
81.1853°
RAAN
54.3604°
Arg. of periapsis
192.7696°
True anomaly
167.34896°
Mean anomaly
167.3224°
Eccentric anomaly
167.33568°
Mean motion
3.59874 °/min
Orbital period
100.04 mins
BSTAR
0.0011631
Loading maneuver chart data...
Computing Atmospheric mass density...

Documentation

Showing up to 5 results
|